Estación Meteorológica Peña el Pijo (Robertgarden) [ 07/07/20 10:42:33 CEST ]

Fecha Hora Presion(HPa) Temp (°C) Humedad % Rocio (°C) Viento ( m/s) Direccion Lluvia 1Hora(mm) Lluvia 24H(mm) LLuvia Total(mm)
2020-Apr-05 01:09:28 1007.700 - - - - N     39.88
2020-Apr-05 02:09:29 1007.900 - - - - N     39.88
2020-Apr-05 03:09:18 1007.600 - - - - N     39.88
2020-Apr-05 04:13:26 1007.500 - - - - N     39.88
2020-Apr-05 05:12:05 1007.400 - - - - N     39.88
2020-Apr-05 06:09:12 1007.300 - - - - N     39.88
2020-Apr-05 07:10:20 1007.500 - - - - N     39.88
2020-Apr-05 08:09:09 1008.200 - - - - N     39.88
2020-Apr-05 09:09:06 1008.300 - - - - N     39.88
2020-Apr-05 10:09:27 1008.400 - - - - N     39.88
2020-Apr-05 11:08:55 1008.300 - - - - N     39.88
2020-Apr-05 12:09:26 1008.200 - - - - N     39.88
2020-Apr-05 13:08:44 1007.900 - - - - N     39.88
2020-Apr-05 14:08:57 1007.800 - - - - N     39.88
2020-Apr-05 15:08:57 1007.200 - - - - N     39.88
2020-Apr-05 16:09:19 1006.600 - - - - N     39.88
2020-Apr-05 17:09:29 1006.400 - - - - N     39.88
2020-Apr-05 18:09:07 1006.800 - - - - N     39.88
2020-Apr-05 19:08:49 1007.300 - - - - N     39.88
2020-Apr-05 20:09:04 1007.300 - - - - N     39.88
2020-Apr-05 21:09:32 1007.800 - - - - N     39.88
2020-Apr-05 22:09:08 1008.800 - - - - N     39.88
2020-Apr-05 23:08:48 1009.200 - - - - N     39.88

Temperatura Máxima:    Temperatura Mínima:
Presión Máxima:1009.200 Hpa    Presión Mínima:1006.400 Hpa


Volver